Tracking 19706 objects as of 16-Jun-2019
HD Live streaming from Space Station
objects crossing your sky now

CATSAT-1

Track CATSAT-1 now!
10-day predictions


NORAD ID: 44033
Int'l Code: 1998-067PZ
Perigee: 401.6 km
Apogee: 409.0 km
Inclination: 51.6 °
Period: 92.5 minutes
Semi major axis: 6776 km
RCS: Unknown
Launch date: November 20, 1998
Source: United States (US)
Launch site: TYURATAM MISSILE AND SPACE COMPLEX (TTMTR)
aabbcc
Your satellite tracking list
Your tracking list is empty




NASA's NSSDC Master Catalog

Two Line Element Set (TLE):
1 44033U 98067PZ  19166.97852050  .00008953  00000-0  13121-3 0  9999
2 44033  51.6399   4.6997 0005427 133.9542 226.1898 15.56372466 21069
Source of the keplerian elements: AFSPC